C/2012 X1 ( LINEAR )

Japanese version
Home page
Updated on September 20, 2014

---------------------------------------------------------------------

* Profile

Discovery Date December 8, 2012
Magnitude 19.4 mag
Discoverer Lincoln Laboratory Near-Earth Asteroid Research project

* Pictures

* Orbital Elements

Epoch 2014 Mar. 4.0 TT = JDT 2456720.5
T 2014 Feb. 21.62595 TT                                 MPC
q   1.5989267            (2000.0)            P               Q
z  +0.0064717      Peri.  132.10854     -0.22407477     +0.73238388
                   Node   113.14675     -0.96330335     -0.26647990
e   0.9896523      Incl.   44.36722     +0.14777403     -0.62657985
From 2227 observations 2012 Dec. 8-2014 Aug. 5, mean residual 0".5.
     Nongravitational parameters A1 = +3.11, A2 = +0.4766.

* Finding Charts

* Magnitudes Graph

        m1 = 8.0 + 5 log d + 10.0 log r           [    ,-130]  (             - 2013 Oct. 14)
        m1 = 0.8 + 5 log d + 23   log r(t + 150)  [-130, -70]  (2013 Oct. 14 - 2013 Dec. 13)
        m1 = 4.6 + 5 log d + 10.0 log r           [ -70,    ]  (2013 Dec. 13 -             )

---------------------------------------------------------------------

The orbital elements are published on M.P.E.C. 2014-P41.
The charts are made with StellaNavigator Ver.8 (AstroArts).
The magnitudes graphs are made with Comet for Windows.

---------------------------------------------------------------------

Copyright(C) Seiichi Yoshida (comet@aerith.net). All rights reserved.